TimeAKDT,TemperatureF,Dew PointF,Humidity,Sea Level PressureIn,VisibilityMPH,Wind Direction,Wind SpeedMPH,Gust SpeedMPH,PrecipitationIn,Events,Conditions,WindDirDegrees,DateUTC
12:53 AM,53.1,52.0,96,29.87,10.0,NW,4.6,-,N/A,,Mostly Cloudy,320,2013-08-28 08:53:00
1:53 AM,52.0,52.0,100,29.87,10.0,NNW,3.5,-,N/A,,Scattered Clouds,330,2013-08-28 09:53:00
2:53 AM,51.1,51.1,100,29.86,10.0,Calm,Calm,-,N/A,,Scattered Clouds,0,2013-08-28 10:53:00
3:53 AM,50.0,48.9,96,29.86,10.0,Calm,Calm,-,N/A,,Scattered Clouds,0,2013-08-28 11:53:00
4:53 AM,50.0,50.0,100,29.86,10.0,NNW,3.5,-,N/A,,Mostly Cloudy,330,2013-08-28 12:53:00
5:53 AM,50.0,50.0,100,29.86,10.0,NW,3.5,-,N/A,,Mostly Cloudy,320,2013-08-28 13:53:00
6:53 AM,52.0,52.0,100,29.86,10.0,NNW,4.6,-,N/A,,Mostly Cloudy,330,2013-08-28 14:53:00
7:53 AM,57.0,55.0,93,29.87,10.0,NNW,3.5,-,N/A,,Mostly Cloudy,330,2013-08-28 15:53:00
8:53 AM,61.0,55.9,83,29.87,10.0,NW,4.6,-,N/A,,Mostly Cloudy,320,2013-08-28 16:53:00
9:53 AM,64.0,55.0,73,29.87,10.0,NNW,5.8,-,N/A,,Scattered Clouds,330,2013-08-28 17:53:00
10:53 AM,66.0,54.0,65,29.87,10.0,NW,8.1,-,N/A,,Scattered Clouds,320,2013-08-28 18:53:00
11:53 AM,68.0,55.9,65,29.87,10.0,NW,4.6,-,N/A,,Scattered Clouds,310,2013-08-28 19:53:00
12:53 PM,69.1,55.0,61,29.86,10.0,Calm,Calm,-,N/A,,Scattered Clouds,0,2013-08-28 20:53:00
1:53 PM,70.0,54.0,57,29.86,10.0,WNW,3.5,-,N/A,,Scattered Clouds,290,2013-08-28 21:53:00
2:53 PM,70.0,53.1,55,29.86,10.0,WNW,4.6,-,N/A,,Scattered Clouds,290,2013-08-28 22:53:00
3:53 PM,70.0,52.0,53,29.86,10.0,West,3.5,-,N/A,,Scattered Clouds,270,2013-08-28 23:53:00
4:53 PM,66.9,51.1,57,29.85,10.0,West,3.5,-,N/A,,Scattered Clouds,280,2013-08-29 00:53:00
5:53 PM,64.9,50.0,58,29.85,10.0,WNW,3.5,-,N/A,,Clear,290,2013-08-29 01:53:00
6:53 PM,62.1,51.1,67,29.84,10.0,Calm,Calm,-,N/A,,Clear,0,2013-08-29 02:53:00
7:53 PM,57.0,52.0,83,29.85,10.0,Calm,Calm,-,N/A,,Clear,0,2013-08-29 03:53:00
8:53 PM,54.0,53.1,97,29.85,10.0,Calm,Calm,-,N/A,,Clear,0,2013-08-29 04:53:00
9:53 PM,54.0,52.0,93,29.85,10.0,Calm,Calm,-,N/A,,Clear,0,2013-08-29 05:53:00
10:53 PM,53.1,52.0,96,29.84,10.0,Calm,Calm,-,N/A,,Clear,0,2013-08-29 06:53:00
11:53 PM,55.0,54.0,96,29.84,10.0,Calm,Calm,-,N/A,,Overcast,0,2013-08-29 07:53:00